Regional Weather Roundup
Issued by NWS

Home | Current Version | Previous Version | Graphics & Text | Print | Product List | Glossary On
Versions: 1 2 3 4 5 6 7 8 9 10 11 12 13 14 15 16 17 18 19 20 21 22 23 24 25 26 27 28 29 30 31 32 33 34 35 36 37 38 39 40 41 42 43 44 45 46 47 48 49 50
000
ASUS43 KLOT 100410
RWRIL

ILLINOIS REGIONAL WEATHER ROUNDUP
NATIONAL WEATHER SERVICE CHICAGO/ROMEOVILLE IL
1100 PM CDT WED JUL 09 2014

NOTE: "FAIR" INDICATES FEW OR NO CLOUDS BELOW 12,000 FEET WITH NO
SIGNIFICANT WEATHER AND/OR OBSTRUCTIONS TO VISIBILITY.

* THESE STATIONS ARE NOT UNDER NWS QUALITY CONTROL. THEY ALSO MAY NOT
  REPORT WEATHER SUCH AS PRECIPITATION OR FOG.

ILZ001-002-007-009-015-016-024-100500-
NORTHWEST ILLINOIS

CITY           SKY/WX    TMP DP  RH WIND       PRES   REMARKS
MOLINE         CLEAR     63  59  87 CALM      30.05R
STERLING*      CLEAR     63  55  77 CALM      30.06R
SAVANNA*       CLEAR     62  55  78 NE5       30.05R
$$

ILZ003-004-008-010-011-017-018-100500-
NORTH CENTRAL ILLINOIS

CITY           SKY/WX    TMP DP  RH WIND       PRES   REMARKS
ROCKFORD       CLEAR     63  55  75 CALM      30.08R
FREEPORT*      CLEAR     58  55  88 CALM      30.08R
ROCHELLE*      CLEAR     58  55  89 CALM      30.07R
DE KALB*       CLEAR     61  53  74 CALM      30.07R
PERU*          CLEAR     64  56  75 NE3       30.06R
$$

ILZ005-006-012>014-019>023-100500-
NORTHEAST ILLINOIS

CITY           SKY/WX    TMP DP  RH WIND       PRES   REMARKS
CHICAGO-OHARE  CLEAR     66  55  67 E5        30.05R
CHICAGO-MIDWAY CLEAR     68  60  75 E6        30.05R
AURORA         CLEAR     60  54  80 CALM      30.06R
LANSING*       CLEAR     65  58  79 CALM      30.06R
JOLIET*        CLEAR     60  53  77 CALM      30.06R
WAUKEGAN       CLEAR     57  55  93 CALM      30.05R
DUPAGE AIRPORT CLEAR     63  54  72 CALM      30.05R
KANKAKEE*      CLEAR     64  58  79 CALM      30.06R
WHEELING       CLEAR     63  57  81 CALM      30.06R
MORRIS*        CLEAR     63  57  81 CALM      30.05R
ROMEOVILLE*    CLEAR     65  53  64 E5        30.06R
NORTHERLY ISL    N/A     63  59  87 CALM        N/A
$$

LMZ740>746-100500-
SOUTHERN LAKE MICHIGAN

STATION/POSITION SKY/WX   TEMP    WIND        PRES    VSBY  WAVE
                          AIR SEA DIR/SP/G                  HT/PER
                          (F)     (DEG/KT/KT) (MB)    (MI)  (FT/S)
SOUTHERN BUOY              58 56  360/  2/  2 1017.9R         0
WAUKEGAN HARBOR            61        CALM     1019.0R
HARRISON CRIB              66     100/  3/  3   N/A
BURNHAM HARBOR             63      CALM  /  2   N/A
CALUMET HARBOR             67      80/  4/  5 1018.4R
MICHIGAN CITY              67      70/  4/  6   N/A
$$

ILZ025>027-034>036-040-047-049-050-058-095>099-100500-
WEST-CENTRAL ILLINOIS

CITY           SKY/WX    TMP DP  RH WIND       PRES   REMARKS
QUINCY         CLEAR     68  57  68 CALM      30.07R
GALESBURG*     MOCLDY    62  60  91 CALM      30.07R
MACOMB*        CLEAR     60  58  92 CALM      30.08S
JACKSONVILLE*  CLEAR     65  60  85 CALM      30.08R
PITTSFIELD*    CLEAR     64  60  87 CALM      30.08S
$$

ILZ028>032-037-038-041>044-048-051>054-059>061-100500-
CENTRAL ILLINOIS

CITY           SKY/WX    TMP DP  RH WIND       PRES   REMARKS
PONTIAC        CLEAR     61  59  94 CALM      30.05R
BLOOMINGTON    CLEAR     67  57  70 N5        30.08R
DECATUR        CLEAR     66  59  78 CALM      30.06R
PEORIA         CLEAR     66  58  75 CALM      30.06R
LACON*         CLEAR     60  56  87 CALM      30.06R
LINCOLN*       CLEAR     65  60  82 CALM      30.04R
SPRINGFIELD    CLEAR     62  59  90 CALM      30.07R
TAYLORVILLE    CLEAR     63  57  82 CALM      30.06R
$$

ILZ033-039-045-046-055>057-062-063-100500-
EAST-CENTRAL ILLINOIS

CITY           SKY/WX    TMP DP  RH WIND       PRES   REMARKS
CHAMPAIGN      CLEAR     64  58  80 N5        30.05R
RANTOUL*       CLEAR     70  56  61 N7        30.06R
MATTOON        CLEAR     65  58  78 CALM      30.04R
PARIS*         CLEAR     60  59  96 CALM      30.05R
$$

ILZ079-100>102-100500-
SOUTHWEST ILLINOIS

CITY           SKY/WX    TMP DP  RH WIND       PRES   REMARKS
ALTON          CLEAR     66  64  93 CALM      30.06R
BELLEVILLE     CLEAR     66  63  88 NW2       30.05R
CAHOKIA*       CLEAR     66  61  84 CALM      30.05R
SPARTA*        CLEAR     68  59  73 N3        30.06R
$$

ILZ064>066-069>071-074>076-080>082-084>086-088>090-092>094-100500-
SOUTH-CENTRAL ILLINOIS

CITY           SKY/WX    TMP DP  RH WIND       PRES   REMARKS
CARBONDALE     PTCLDY    69  64  84 CALM      30.03R
CAIRO*         CLEAR     72  66  82 CALM      30.02R
MARION         PTCLDY    70  64  83 CALM      30.03S
MT. VERNON     CLEAR     66  59  77 N3        30.05R
CENTRALIA*     CLEAR     65  60  85 CALM      30.05R
SALEM*         CLEAR     68  63  83 CALM      30.05R
METROPOLIS*    CLEAR     67  65  91 CALM      30.02R
$$

ILZ067-068-072-073-078-083-087-091-100500-
SOUTHEAST ILLINOIS

CITY           SKY/WX    TMP DP  RH WIND       PRES   REMARKS
FLORA*         CLEAR     68  60  75 N3        30.05R
HARRISBURG*    MOCLDY    71  66  84 CALM      30.04R
ROBINSON*      MOCLDY    66  63  90 CALM      30.05R
CARMI*         PTCLDY    72  67  85 N6        30.02R
$$

ABBREVIATIONS USED IN REMARKS
   TC - TEMPERATURE IN CELSIUS
  WCI - WIND CHILL INDEX
   HX - HEAT INDEX
  VSB - VISIBILITY
$$



USA.gov is the U.S. government's official web portal to all federal, state and local government web resources and services.